Weather in Cleveland

United States     41°29′57″N   81°41′37″W
temp.,
°C
wind,
m/s
gust,
m/s
humid.,
%
clouds,
%
prec.,
mm/h
press.,
hPa
HPBL,
m
18 september, sat
sat1823:00+23s237714 0.0 101839
02:00+22ssw357957 0.0 1018149
05:00+21wsw36830 0.1 1019165
08:00+21nne4684100 0.1 1020343
11:00+23nne5573100 0.0 1021498
14:00+22n5571100 0.0 1020495
17:00+22n34649 0.0 1020329
20:00+22n35646 0.0 1020275
19 september, sun
sun1923:00+21nne576337 0.0 1022376
02:00+20ne33645 0.0 1021234
05:00+19se33675 0.0 1021121
08:00+17ese23695 0.0 1023142
11:00+22e22492 0.0 1023421
14:00+24nne43475 0.0 1021691
17:00+23nne44530 0.0 1020378
20:00+22ne34617 0.0 102076
20 september, mon
mon2023:00+21se485398 0.0 1020202
02:00+20se4853100 0.0 1020183
05:00+19se485099 0.0 1020168
08:00+18se4759100 0.0 1020164
11:00+24sse365698 0.0 1020265
14:00+28ssw4655100 0.0 1019745
17:00+25sw81166100 0.2 1019471
20:00+22ssw388087 0.3 1020365
21 september, tue
tue2123:00+22s3882100 0.0 1020309
02:00+22s51280100 0.3 1020832
05:00+20s71488100 0.9 1019862
08:00+20sse91587100 2.6 1019827
11:00+22s9137453 0.0 1019853
14:00+23s8117299 0.1 1018992
17:00+22s61083100 0.9 1016935
20:00+20sse71385100 1.8 1015635
22 september, wed
wed2223:00+19s81592100 5.3 1014697
02:00+19s81495100 8.8 1011709
05:00+18wnw7993100 11.3 1012691
08:00+16nw8990100 14.5 1014881
11:00+16nnw8984100 1.9 1015937
14:00+16nw8980100 2.9 10161119
17:00+16nnw896922 0.7 10171037
20:00+16n796276 0.8 10191071